Time,TemperatureF,DewpointF,PressureIn,WindDirection,WindDirectionDegrees,WindSpeedMPH,WindSpeedGustMPH,Humidity,HourlyPrecipIn,Conditions,Clouds,dailyrainin,SoftwareType,DateUTC
2013-04-15 00:00:00,55.0,47.9,29.76,North,-999,-999.0,-999.0,76,0.00,,,0.00,tws,2013-04-15 04:00:00,
2013-04-15 00:05:00,55.1,48.1,29.76,North,-999,-999.0,-999.0,77,0.00,,,0.00,tws,2013-04-15 04:05:00,
2013-04-15 00:10:00,55.0,48.3,29.77,North,-999,-999.0,-999.0,77,0.00,,,0.00,tws,2013-04-15 04:10:00,
2013-04-15 00:15:00,54.9,48.1,29.76,North,-999,-999.0,-999.0,77,0.00,,,0.00,tws,2013-04-15 04:15:00,
2013-04-15 00:20:00,54.8,48.0,29.76,North,-999,-999.0,-999.0,77,0.00,,,0.00,tws,2013-04-15 04:20:00,
2013-04-15 00:25:00,54.6,48.0,29.76,North,-999,-999.0,-999.0,78,0.00,,,0.00,tws,2013-04-15 04:25:00,
2013-04-15 00:30:00,54.5,48.2,29.75,North,-999,-999.0,-999.0,79,0.00,,,0.00,tws,2013-04-15 04:30:00,
2013-04-15 00:40:00,53.9,48.6,29.75,North,-999,-999.0,-999.0,82,0.00,,,0.00,tws,2013-04-15 04:40:00,
2013-04-15 00:45:00,53.6,48.6,29.74,North,-999,-999.0,-999.0,82,0.00,,,0.00,tws,2013-04-15 04:45:00,
2013-04-15 00:50:00,53.4,48.6,29.74,North,-999,-999.0,-999.0,83,0.00,,,0.00,tws,2013-04-15 04:50:00,
2013-04-15 00:55:00,53.3,48.8,29.74,North,-999,-999.0,-999.0,84,0.00,,,0.00,tws,2013-04-15 04:55:00,
2013-04-15 01:00:00,53.2,48.7,29.74,North,-999,-999.0,-999.0,84,0.00,,,0.00,tws,2013-04-15 05:00:00,
2013-04-15 01:05:00,53.1,49.0,29.74,North,-999,-999.0,-999.0,85,0.00,,,0.00,tws,2013-04-15 05:05:00,
2013-04-15 01:10:00,52.9,49.0,29.74,North,-999,-999.0,-999.0,86,0.00,,,0.00,tws,2013-04-15 05:10:00,
2013-04-15 01:15:00,52.8,49.1,29.74,North,-999,-999.0,-999.0,87,0.00,,,0.00,tws,2013-04-15 05:15:00,
2013-04-15 01:20:00,52.7,49.3,29.74,North,-999,-999.0,-999.0,88,0.00,,,0.00,tws,2013-04-15 05:20:00,
2013-04-15 01:25:00,52.4,49.4,29.74,North,-999,-999.0,-999.0,89,0.12,,,0.01,tws,2013-04-15 05:25:00,
2013-04-15 01:30:00,52.2,49.3,29.74,North,-999,-999.0,-999.0,89,0.00,,,0.01,tws,2013-04-15 05:30:00,
2013-04-15 01:35:00,52.1,49.3,29.74,North,-999,-999.0,-999.0,90,0.00,,,0.01,tws,2013-04-15 05:35:00,
2013-04-15 01:40:00,52.0,49.5,29.74,North,-999,-999.0,-999.0,91,0.12,,,0.02,tws,2013-04-15 05:40:00,
2013-04-15 01:45:00,51.9,49.5,29.74,North,-999,-999.0,-999.0,91,0.00,,,0.02,tws,2013-04-15 05:45:00,
2013-04-15 01:50:00,51.8,49.5,29.74,North,-999,-999.0,-999.0,91,0.00,,,0.02,tws,2013-04-15 05:50:00,
2013-04-15 01:55:00,51.7,49.6,29.74,North,-999,-999.0,-999.0,92,0.00,,,0.02,tws,2013-04-15 05:55:00,
2013-04-15 02:00:00,51.6,49.6,29.74,North,-999,-999.0,-999.0,92,0.12,,,0.03,tws,2013-04-15 06:00:00,
2013-04-15 02:05:00,51.6,49.6,29.74,North,-999,-999.0,-999.0,92,0.00,,,0.03,tws,2013-04-15 06:05:00,
2013-04-15 02:10:00,51.6,49.7,29.74,North,-999,-999.0,-999.0,93,0.00,,,0.03,tws,2013-04-15 06:10:00,
2013-04-15 02:15:00,51.6,49.7,29.74,North,-999,-999.0,-999.0,93,0.00,,,0.03,tws,2013-04-15 06:15:00,
2013-04-15 02:20:00,51.5,49.7,29.73,North,-999,-999.0,-999.0,93,0.12,,,0.04,tws,2013-04-15 06:20:00,
2013-04-15 02:25:00,51.5,49.8,29.73,North,-999,-999.0,-999.0,93,0.00,,,0.04,tws,2013-04-15 06:25:00,
2013-04-15 02:35:00,51.5,49.9,29.73,North,-999,-999.0,-999.0,94,0.00,,,0.04,tws,2013-04-15 06:35:00,
2013-04-15 02:40:00,51.5,49.9,29.73,North,-999,-999.0,-999.0,94,0.00,,,0.04,tws,2013-04-15 06:40:00,
2013-04-15 02:45:00,51.6,50.2,29.73,North,-999,-999.0,-999.0,94,0.00,,,0.04,tws,2013-04-15 06:45:00,
2013-04-15 02:50:00,51.6,50.2,29.73,North,-999,-999.0,-999.0,94,0.12,,,0.05,tws,2013-04-15 06:50:00,
2013-04-15 02:55:00,51.7,50.2,29.73,North,-999,-999.0,-999.0,94,0.00,,,0.05,tws,2013-04-15 06:55:00,
2013-04-15 03:00:00,51.6,50.3,29.73,North,-999,-999.0,-999.0,95,0.00,,,0.05,tws,2013-04-15 07:00:00,
2013-04-15 03:05:00,51.7,50.3,29.73,North,-999,-999.0,-999.0,95,0.00,,,0.05,tws,2013-04-15 07:05:00,
2013-04-15 03:45:00,51.6,50.5,29.72,North,-999,-999.0,-999.0,96,0.12,,,0.07,tws,2013-04-15 07:45:00,
2013-04-15 03:50:00,51.6,50.6,29.72,North,-999,-999.0,-999.0,96,0.00,,,0.07,tws,2013-04-15 07:50:00,
2013-04-15 03:55:00,51.6,50.7,29.73,North,-999,-999.0,-999.0,96,0.00,,,0.07,tws,2013-04-15 07:55:00,
2013-04-15 04:00:00,51.7,50.7,29.73,North,-999,-999.0,-999.0,96,0.00,,,0.07,tws,2013-04-15 08:00:00,
2013-04-15 04:05:00,51.7,50.7,29.73,North,-999,-999.0,-999.0,96,0.00,,,0.07,tws,2013-04-15 08:05:00,
2013-04-15 04:10:00,51.8,50.9,29.73,North,-999,-999.0,-999.0,96,0.00,,,0.07,tws,2013-04-15 08:10:00,
2013-04-15 04:15:00,51.8,50.9,29.73,North,-999,-999.0,-999.0,96,0.00,,,0.07,tws,2013-04-15 08:15:00,
2013-04-15 04:20:00,51.9,51.0,29.73,North,-999,-999.0,-999.0,96,0.00,,,0.07,tws,2013-04-15 08:20:00,
2013-04-15 04:25:00,51.9,51.1,29.73,North,-999,-999.0,-999.0,96,0.00,,,0.07,tws,2013-04-15 08:25:00,
2013-04-15 04:35:00,51.9,51.1,29.73,North,-999,-999.0,-999.0,96,0.00,,,0.07,tws,2013-04-15 08:35:00,
2013-04-15 04:40:00,52.0,51.3,29.73,North,-999,-999.0,-999.0,97,0.00,,,0.07,tws,2013-04-15 08:40:00,
2013-04-15 04:45:00,52.0,51.2,29.73,North,-999,-999.0,-999.0,97,0.12,,,0.08,tws,2013-04-15 08:45:00,
2013-04-15 04:50:00,52.0,51.2,29.73,North,-999,-999.0,-999.0,97,0.00,,,0.08,tws,2013-04-15 08:50:00,
2013-04-15 04:55:00,52.0,51.3,29.73,North,-999,-999.0,-999.0,97,0.00,,,0.08,tws,2013-04-15 08:55:00,
2013-04-15 05:00:00,52.0,51.3,29.73,North,-999,-999.0,-999.0,97,0.00,,,0.08,tws,2013-04-15 09:00:00,
2013-04-15 05:05:00,52.1,51.3,29.74,North,-999,-999.0,-999.0,97,0.00,,,0.08,tws,2013-04-15 09:05:00,
2013-04-15 05:10:00,52.1,51.4,29.74,North,-999,-999.0,-999.0,97,0.00,,,0.08,tws,2013-04-15 09:10:00,
2013-04-15 05:15:00,52.1,51.4,29.74,North,-999,-999.0,-999.0,97,0.12,,,0.09,tws,2013-04-15 09:15:00,
2013-04-15 05:20:00,52.1,51.4,29.74,North,-999,-999.0,-999.0,97,0.00,,,0.09,tws,2013-04-15 09:20:00,
2013-04-15 05:25:00,52.1,51.5,29.74,North,-999,-999.0,-999.0,97,0.00,,,0.09,tws,2013-04-15 09:25:00,
2013-04-15 05:30:00,52.1,51.5,29.74,North,-999,-999.0,-999.0,97,0.00,,,0.09,tws,2013-04-15 09:30:00,
2013-04-15 05:35:00,52.1,51.4,29.74,North,-999,-999.0,-999.0,97,0.00,,,0.09,tws,2013-04-15 09:35:00,
2013-04-15 05:40:00,52.1,51.5,29.74,North,-999,-999.0,-999.0,97,0.00,,,0.09,tws,2013-04-15 09:40:00,
2013-04-15 05:45:00,52.1,51.6,29.74,North,-999,-999.0,-999.0,98,0.00,,,0.09,tws,2013-04-15 09:45:00,
2013-04-15 05:50:00,52.1,51.5,29.74,North,-999,-999.0,-999.0,97,0.00,,,0.09,tws,2013-04-15 09:50:00,
2013-04-15 05:55:00,52.1,51.5,29.74,North,-999,-999.0,-999.0,97,0.00,,,0.09,tws,2013-04-15 09:55:00,
2013-04-15 06:00:00,52.1,51.5,29.74,North,-999,-999.0,-999.0,97,0.00,,,0.09,tws,2013-04-15 10:00:00,
2013-04-15 06:05:00,52.1,51.5,29.74,North,-999,-999.0,-999.0,97,0.00,,,0.09,tws,2013-04-15 10:05:00,
2013-04-15 06:10:00,52.0,51.4,29.75,North,-999,-999.0,-999.0,97,0.00,,,0.09,tws,2013-04-15 10:10:00,
2013-04-15 06:15:00,52.0,51.4,29.75,North,-999,-999.0,-999.0,97,0.00,,,0.09,tws,2013-04-15 10:15:00,
2013-04-15 06:20:00,52.1,51.6,29.76,North,-999,-999.0,-999.0,98,0.00,,,0.09,tws,2013-04-15 10:20:00,
2013-04-15 06:25:00,52.1,51.5,29.76,North,-999,-999.0,-999.0,97,0.00,,,0.09,tws,2013-04-15 10:25:00,
2013-04-15 06:30:00,52.1,51.6,29.76,North,-999,-999.0,-999.0,98,0.00,,,0.09,tws,2013-04-15 10:30:00,
2013-04-15 06:35:00,52.1,51.6,29.76,North,-999,-999.0,-999.0,98,0.00,,,0.09,tws,2013-04-15 10:35:00,
2013-04-15 06:40:00,52.1,51.6,29.76,North,-999,-999.0,-999.0,98,0.00,,,0.09,tws,2013-04-15 10:40:00,
2013-04-15 06:45:00,52.1,51.6,29.76,North,-999,-999.0,-999.0,98,0.00,,,0.09,tws,2013-04-15 10:45:00,
2013-04-15 06:50:00,52.0,51.5,29.76,North,-999,-999.0,-999.0,98,0.00,,,0.09,tws,2013-04-15 10:50:00,
2013-04-15 06:55:00,52.1,51.6,29.76,North,-999,-999.0,-999.0,98,0.12,,,0.10,tws,2013-04-15 10:55:00,
2013-04-15 07:00:00,52.0,51.5,29.76,North,-999,-999.0,-999.0,98,0.00,,,0.10,tws,2013-04-15 11:00:00,
2013-04-15 07:10:00,52.0,51.5,29.77,North,-999,-999.0,-999.0,98,0.00,,,0.10,tws,2013-04-15 11:10:00,
2013-04-15 07:15:00,52.0,51.6,29.76,North,-999,-999.0,-999.0,98,0.00,,,0.10,tws,2013-04-15 11:15:00,
2013-04-15 07:20:00,52.0,51.6,29.77,North,-999,-999.0,-999.0,98,0.00,,,0.10,tws,2013-04-15 11:20:00,
2013-04-15 07:25:00,52.1,51.6,29.77,North,-999,-999.0,-999.0,98,0.00,,,0.10,tws,2013-04-15 11:25:00,
2013-04-15 07:35:00,52.1,51.8,29.77,North,-999,-999.0,-999.0,98,0.00,,,0.10,tws,2013-04-15 11:35:00,
2013-04-15 07:40:00,52.1,51.7,29.77,North,-999,-999.0,-999.0,98,0.00,,,0.10,tws,2013-04-15 11:40:00,
2013-04-15 07:45:00,52.2,51.8,29.78,North,-999,-999.0,-999.0,98,0.00,,,0.10,tws,2013-04-15 11:45:00,
2013-04-15 07:55:00,52.2,51.9,29.79,North,-999,-999.0,-999.0,98,0.00,,,0.10,tws,2013-04-15 11:55:00,
2013-04-15 08:00:00,52.3,51.9,29.79,North,-999,-999.0,-999.0,98,0.00,,,0.10,tws,2013-04-15 12:00:00,
2013-04-15 08:05:00,52.4,52.0,29.79,North,-999,-999.0,-999.0,98,0.00,,,0.10,tws,2013-04-15 12:05:00,
2013-04-15 08:10:00,52.4,51.9,29.79,North,-999,-999.0,-999.0,98,0.00,,,0.10,tws,2013-04-15 12:10:00,
2013-04-15 08:15:00,52.5,52.1,29.80,North,-999,-999.0,-999.0,98,0.00,,,0.10,tws,2013-04-15 12:15:00,
2013-04-15 08:20:00,52.5,52.1,29.80,North,-999,-999.0,-999.0,98,0.00,,,0.10,tws,2013-04-15 12:20:00,
2013-04-15 08:25:00,52.5,52.2,29.80,North,-999,-999.0,-999.0,98,0.00,,,0.10,tws,2013-04-15 12:25:00,
2013-04-15 08:30:00,52.6,52.2,29.80,North,-999,-999.0,-999.0,98,0.00,,,0.10,tws,2013-04-15 12:30:00,
2013-04-15 08:35:00,52.7,52.3,29.80,North,-999,-999.0,-999.0,98,0.00,,,0.10,tws,2013-04-15 12:35:00,
2013-04-15 08:40:00,52.8,52.5,29.80,North,-999,-999.0,-999.0,98,0.00,,,0.10,tws,2013-04-15 12:40:00,
2013-04-15 08:45:00,52.8,52.5,29.80,North,-999,-999.0,-999.0,98,0.00,,,0.10,tws,2013-04-15 12:45:00,
2013-04-15 08:50:00,52.9,52.6,29.80,North,-999,-999.0,-999.0,98,0.00,,,0.10,tws,2013-04-15 12:50:00,
2013-04-15 08:55:00,53.1,52.8,29.80,North,-999,-999.0,-999.0,99,0.00,,,0.10,tws,2013-04-15 12:55:00,
2013-04-15 09:00:00,53.0,52.6,29.80,North,-999,-999.0,-999.0,98,0.00,,,0.10,tws,2013-04-15 13:00:00,
2013-04-15 09:05:00,53.1,52.7,29.80,North,-999,-999.0,-999.0,98,0.00,,,0.10,tws,2013-04-15 13:05:00,
2013-04-15 09:15:00,53.3,52.9,29.80,North,-999,-999.0,-999.0,98,0.00,,,0.10,tws,2013-04-15 13:15:00,
2013-04-15 09:20:00,53.3,52.9,29.80,North,-999,-999.0,-999.0,98,0.00,,,0.10,tws,2013-04-15 13:20:00,
2013-04-15 09:25:00,53.4,53.0,29.81,North,-999,-999.0,-999.0,98,0.00,,,0.10,tws,2013-04-15 13:25:00,
2013-04-15 09:30:00,53.5,53.0,29.81,North,-999,-999.0,-999.0,98,0.00,,,0.10,tws,2013-04-15 13:30:00,
2013-04-15 09:35:00,53.5,53.0,29.81,North,-999,-999.0,-999.0,98,0.00,,,0.10,tws,2013-04-15 13:35:00,
2013-04-15 09:40:00,53.6,53.0,29.82,North,-999,-999.0,-999.0,98,0.00,,,0.10,tws,2013-04-15 13:40:00,
2013-04-15 09:45:00,53.6,53.0,29.82,North,-999,-999.0,-999.0,97,0.00,,,0.10,tws,2013-04-15 13:45:00,
2013-04-15 09:50:00,53.6,53.0,29.82,North,-999,-999.0,-999.0,97,0.00,,,0.10,tws,2013-04-15 13:50:00,
2013-04-15 09:55:00,53.7,53.1,29.82,North,-999,-999.0,-999.0,98,0.00,,,0.10,tws,2013-04-15 13:55:00,
2013-04-15 10:00:00,53.7,53.2,29.82,North,-999,-999.0,-999.0,98,0.00,,,0.10,tws,2013-04-15 14:00:00,
2013-04-15 10:05:00,53.7,53.1,29.82,North,-999,-999.0,-999.0,97,0.00,,,0.10,tws,2013-04-15 14:05:00,
2013-04-15 10:10:00,53.7,53.0,29.82,North,-999,-999.0,-999.0,97,0.00,,,0.10,tws,2013-04-15 14:10:00,
2013-04-15 10:15:00,53.7,53.1,29.82,North,-999,-999.0,-999.0,97,0.00,,,0.10,tws,2013-04-15 14:15:00,
2013-04-15 10:20:00,53.9,53.2,29.82,North,-999,-999.0,-999.0,97,0.00,,,0.10,tws,2013-04-15 14:20:00,
2013-04-15 10:25:00,54.1,53.4,29.82,North,-999,-999.0,-999.0,97,0.00,,,0.10,tws,2013-04-15 14:25:00,
2013-04-15 10:30:00,54.3,53.6,29.82,North,-999,-999.0,-999.0,97,0.00,,,0.10,tws,2013-04-15 14:30:00,
2013-04-15 10:35:00,54.5,53.7,29.82,North,-999,-999.0,-999.0,97,0.00,,,0.10,tws,2013-04-15 14:35:00,
2013-04-15 10:40:00,54.5,53.6,29.82,North,-999,-999.0,-999.0,96,0.00,,,0.10,tws,2013-04-15 14:40:00,
2013-04-15 10:50:00,54.8,53.9,29.83,North,-999,-999.0,-999.0,96,0.00,,,0.10,tws,2013-04-15 14:50:00,
2013-04-15 10:55:00,54.9,53.8,29.83,North,-999,-999.0,-999.0,96,0.00,,,0.10,tws,2013-04-15 14:55:00,
2013-04-15 11:05:00,54.8,53.7,29.83,North,-999,-999.0,-999.0,96,0.00,,,0.10,tws,2013-04-15 15:05:00,
2013-04-15 11:10:00,55.0,54.0,29.83,North,-999,-999.0,-999.0,96,0.00,,,0.10,tws,2013-04-15 15:10:00,
2013-04-15 11:15:00,55.3,54.2,29.83,North,-999,-999.0,-999.0,96,0.00,,,0.10,tws,2013-04-15 15:15:00,
2013-04-15 11:20:00,55.6,54.4,29.83,North,-999,-999.0,-999.0,95,0.00,,,0.10,tws,2013-04-15 15:20:00,
2013-04-15 11:25:00,56.0,54.8,29.83,North,-999,-999.0,-999.0,95,0.00,,,0.10,tws,2013-04-15 15:25:00,
2013-04-15 11:35:00,56.7,55.1,29.83,North,-999,-999.0,-999.0,94,0.00,,,0.10,tws,2013-04-15 15:35:00,
2013-04-15 11:40:00,57.3,55.5,29.83,North,-999,-999.0,-999.0,93,0.00,,,0.10,tws,2013-04-15 15:40:00,
2013-04-15 11:45:00,57.9,55.7,29.83,North,-999,-999.0,-999.0,92,0.00,,,0.10,tws,2013-04-15 15:45:00,
2013-04-15 11:50:00,58.6,55.9,29.83,North,-999,-999.0,-999.0,90,0.00,,,0.10,tws,2013-04-15 15:50:00,
2013-04-15 11:55:00,59.2,56.1,29.84,North,-999,-999.0,-999.0,89,0.00,,,0.10,tws,2013-04-15 15:55:00,
2013-04-15 12:00:00,59.7,56.2,29.84,North,-999,-999.0,-999.0,88,0.00,,,0.10,tws,2013-04-15 16:00:00,
2013-04-15 12:05:00,59.9,56.1,29.84,North,-999,-999.0,-999.0,87,0.00,,,0.10,tws,2013-04-15 16:05:00,
2013-04-15 12:10:00,60.1,56.1,29.84,North,-999,-999.0,-999.0,86,0.00,,,0.10,tws,2013-04-15 16:10:00,
2013-04-15 12:15:00,60.3,55.9,29.84,North,-999,-999.0,-999.0,85,0.00,,,0.10,tws,2013-04-15 16:15:00,
2013-04-15 12:20:00,60.6,56.2,29.84,North,-999,-999.0,-999.0,85,0.00,,,0.10,tws,2013-04-15 16:20:00,
2013-04-15 12:25:00,61.0,56.5,29.84,North,-999,-999.0,-999.0,84,0.00,,,0.10,tws,2013-04-15 16:25:00,
2013-04-15 12:30:00,61.4,56.3,29.84,North,-999,-999.0,-999.0,83,0.00,,,0.10,tws,2013-04-15 16:30:00,
2013-04-15 12:35:00,61.7,56.2,29.84,North,-999,-999.0,-999.0,82,0.00,,,0.10,tws,2013-04-15 16:35:00,
2013-04-15 12:40:00,61.7,56.4,29.84,North,-999,-999.0,-999.0,82,0.00,,,0.10,tws,2013-04-15 16:40:00,
2013-04-15 12:45:00,61.7,56.4,29.84,North,-999,-999.0,-999.0,82,0.00,,,0.10,tws,2013-04-15 16:45:00,
2013-04-15 12:55:00,61.0,55.7,29.84,North,-999,-999.0,-999.0,82,0.00,,,0.10,tws,2013-04-15 16:55:00,
2013-04-15 13:00:00,60.7,55.5,29.84,North,-999,-999.0,-999.0,82,0.00,,,0.10,tws,2013-04-15 17:00:00,
2013-04-15 13:05:00,60.7,55.6,29.84,North,-999,-999.0,-999.0,83,0.00,,,0.10,tws,2013-04-15 17:05:00,
2013-04-15 13:10:00,61.0,56.0,29.84,North,-999,-999.0,-999.0,83,0.00,,,0.10,tws,2013-04-15 17:10:00,
2013-04-15 13:15:00,61.7,56.6,29.84,North,-999,-999.0,-999.0,83,0.00,,,0.10,tws,2013-04-15 17:15:00,
2013-04-15 13:20:00,62.7,57.1,29.84,North,-999,-999.0,-999.0,81,0.00,,,0.10,tws,2013-04-15 17:20:00,
2013-04-15 13:25:00,63.5,57.4,29.84,North,-999,-999.0,-999.0,80,0.00,,,0.10,tws,2013-04-15 17:25:00,
2013-04-15 13:30:00,64.3,57.7,29.84,North,-999,-999.0,-999.0,78,0.00,,,0.10,tws,2013-04-15 17:30:00,
2013-04-15 13:35:00,64.4,57.0,29.84,North,-999,-999.0,-999.0,76,0.00,,,0.10,tws,2013-04-15 17:35:00,
2013-04-15 13:40:00,64.1,56.9,29.84,North,-999,-999.0,-999.0,77,0.00,,,0.10,tws,2013-04-15 17:40:00,
2013-04-15 13:45:00,64.7,57.4,29.84,North,-999,-999.0,-999.0,76,0.00,,,0.10,tws,2013-04-15 17:45:00,
2013-04-15 13:55:00,64.1,56.4,29.84,North,-999,-999.0,-999.0,75,0.00,,,0.10,tws,2013-04-15 17:55:00,
2013-04-15 14:00:00,64.1,56.9,29.84,North,-999,-999.0,-999.0,77,0.00,,,0.10,tws,2013-04-15 18:00:00,
2013-04-15 14:05:00,64.7,57.1,29.84,North,-999,-999.0,-999.0,75,0.00,,,0.10,tws,2013-04-15 18:05:00,
2013-04-15 14:10:00,65.3,57.5,29.84,North,-999,-999.0,-999.0,75,0.00,,,0.10,tws,2013-04-15 18:10:00,
2013-04-15 14:15:00,65.5,57.4,29.84,North,-999,-999.0,-999.0,74,0.00,,,0.10,tws,2013-04-15 18:15:00,
2013-04-15 14:25:00,64.7,56.7,29.85,North,-999,-999.0,-999.0,74,0.00,,,0.10,tws,2013-04-15 18:25:00,
2013-04-15 14:30:00,63.8,56.5,29.86,North,-999,-999.0,-999.0,76,0.00,,,0.10,tws,2013-04-15 18:30:00,
2013-04-15 14:35:00,63.0,55.9,29.86,North,-999,-999.0,-999.0,77,0.00,,,0.10,tws,2013-04-15 18:35:00,
2013-04-15 14:40:00,62.0,55.5,29.86,North,-999,-999.0,-999.0,79,0.00,,,0.10,tws,2013-04-15 18:40:00,
2013-04-15 14:45:00,61.3,55.2,29.86,North,-999,-999.0,-999.0,80,0.00,,,0.10,tws,2013-04-15 18:45:00,
2013-04-15 14:50:00,61.0,55.4,29.86,North,-999,-999.0,-999.0,81,0.00,,,0.10,tws,2013-04-15 18:50:00,
2013-04-15 14:55:00,60.7,55.2,29.86,North,-999,-999.0,-999.0,82,0.00,,,0.10,tws,2013-04-15 18:55:00,
2013-04-15 15:00:00,60.5,55.3,29.86,North,-999,-999.0,-999.0,82,0.00,,,0.10,tws,2013-04-15 19:00:00,
2013-04-15 15:05:00,60.6,55.6,29.86,North,-999,-999.0,-999.0,83,0.00,,,0.10,tws,2013-04-15 19:05:00,
2013-04-15 15:10:00,60.7,55.5,29.86,North,-999,-999.0,-999.0,82,0.00,,,0.10,tws,2013-04-15 19:10:00,
2013-04-15 15:15:00,60.5,55.3,29.86,North,-999,-999.0,-999.0,82,0.00,,,0.10,tws,2013-04-15 19:15:00,
2013-04-15 15:20:00,59.8,54.8,29.86,North,-999,-999.0,-999.0,83,0.00,,,0.10,tws,2013-04-15 19:20:00,
2013-04-15 15:25:00,59.5,54.9,29.86,North,-999,-999.0,-999.0,84,0.00,,,0.10,tws,2013-04-15 19:25:00,
2013-04-15 15:30:00,59.3,54.7,29.86,North,-999,-999.0,-999.0,84,0.00,,,0.10,tws,2013-04-15 19:30:00,
2013-04-15 15:35:00,59.5,54.8,29.85,North,-999,-999.0,-999.0,84,0.00,,,0.10,tws,2013-04-15 19:35:00,
2013-04-15 15:40:00,59.5,54.9,29.85,North,-999,-999.0,-999.0,84,0.00,,,0.10,tws,2013-04-15 19:40:00,
2013-04-15 15:50:00,59.2,54.7,29.85,North,-999,-999.0,-999.0,84,0.00,,,0.10,tws,2013-04-15 19:50:00,
2013-04-15 15:55:00,59.0,54.5,29.85,North,-999,-999.0,-999.0,85,0.00,,,0.10,tws,2013-04-15 19:55:00,
2013-04-15 16:05:00,59.7,54.8,29.85,North,-999,-999.0,-999.0,83,0.00,,,0.10,tws,2013-04-15 20:05:00,
2013-04-15 16:10:00,60.2,55.1,29.84,North,-999,-999.0,-999.0,83,0.00,,,0.10,tws,2013-04-15 20:10:00,
2013-04-15 16:15:00,60.0,54.8,29.85,North,-999,-999.0,-999.0,82,0.00,,,0.10,tws,2013-04-15 20:15:00,
2013-04-15 16:20:00,59.5,54.4,29.85,North,-999,-999.0,-999.0,82,0.00,,,0.10,tws,2013-04-15 20:20:00,
2013-04-15 16:25:00,59.4,54.4,29.85,North,-999,-999.0,-999.0,83,0.00,,,0.10,tws,2013-04-15 20:25:00,
2013-04-15 16:30:00,59.6,54.6,29.86,North,-999,-999.0,-999.0,83,0.00,,,0.10,tws,2013-04-15 20:30:00,
2013-04-15 16:35:00,-152.0,-99.9,29.85,North,-999,-999.0,-999.0,82,0.00,,,0.10,tws,2013-04-15 20:35:00,
2013-04-15 16:40:00,60.0,54.8,29.85,North,-999,-999.0,-999.0,82,0.00,,,0.10,tws,2013-04-15 20:40:00,
2013-04-15 16:45:00,59.7,54.5,29.86,North,-999,-999.0,-999.0,82,0.00,,,0.10,tws,2013-04-15 20:45:00,
2013-04-15 16:50:00,59.6,54.6,29.86,North,-999,-999.0,-999.0,83,0.00,,,0.10,tws,2013-04-15 20:50:00,
2013-04-15 16:55:00,59.5,54.5,29.86,North,-999,-999.0,-999.0,83,0.00,,,0.10,tws,2013-04-15 20:55:00,
2013-04-15 17:00:00,59.5,54.5,29.86,North,-999,-999.0,-999.0,83,0.00,,,0.10,tws,2013-04-15 21:00:00,
2013-04-15 17:05:00,59.7,54.7,29.86,North,-999,-999.0,-999.0,83,0.00,,,0.10,tws,2013-04-15 21:05:00,
2013-04-15 17:10:00,60.1,54.8,29.86,North,-999,-999.0,-999.0,82,0.00,,,0.10,tws,2013-04-15 21:10:00,
2013-04-15 17:15:00,60.4,55.0,29.86,North,-999,-999.0,-999.0,82,0.00,,,0.10,tws,2013-04-15 21:15:00,
2013-04-15 17:20:00,60.5,54.9,29.86,North,-999,-999.0,-999.0,81,0.00,,,0.10,tws,2013-04-15 21:20:00,
2013-04-15 17:25:00,60.3,54.8,29.86,North,-999,-999.0,-999.0,81,0.00,,,0.10,tws,2013-04-15 21:25:00,
2013-04-15 17:30:00,59.9,54.5,29.86,North,-999,-999.0,-999.0,81,0.00,,,0.10,tws,2013-04-15 21:30:00,
2013-04-15 17:35:00,59.5,54.3,29.86,North,-999,-999.0,-999.0,82,0.00,,,0.10,tws,2013-04-15 21:35:00,
2013-04-15 17:40:00,59.0,54.0,29.86,North,-999,-999.0,-999.0,83,0.00,,,0.10,tws,2013-04-15 21:40:00,
2013-04-15 17:45:00,58.7,53.9,29.86,North,-999,-999.0,-999.0,83,0.00,,,0.10,tws,2013-04-15 21:45:00,
2013-04-15 17:50:00,58.5,54.0,29.86,North,-999,-999.0,-999.0,84,0.00,,,0.10,tws,2013-04-15 21:50:00,
2013-04-15 17:55:00,58.5,54.1,29.87,North,-999,-999.0,-999.0,85,0.00,,,0.10,tws,2013-04-15 21:55:00,
2013-04-15 18:00:00,58.5,54.1,29.87,North,-999,-999.0,-999.0,85,0.00,,,0.10,tws,2013-04-15 22:00:00,
2013-04-15 18:05:00,58.4,54.1,29.87,North,-999,-999.0,-999.0,85,0.00,,,0.10,tws,2013-04-15 22:05:00,
2013-04-15 18:10:00,58.3,54.1,29.87,North,-999,-999.0,-999.0,85,0.00,,,0.10,tws,2013-04-15 22:10:00,
2013-04-15 18:15:00,58.2,54.0,29.88,North,-999,-999.0,-999.0,85,0.00,,,0.10,tws,2013-04-15 22:15:00,
2013-04-15 18:20:00,58.2,53.9,29.88,North,-999,-999.0,-999.0,85,0.00,,,0.10,tws,2013-04-15 22:20:00,
2013-04-15 18:25:00,58.2,54.0,29.88,North,-999,-999.0,-999.0,85,0.00,,,0.10,tws,2013-04-15 22:25:00,
2013-04-15 18:30:00,58.1,53.8,29.88,North,-999,-999.0,-999.0,85,0.00,,,0.10,tws,2013-04-15 22:30:00,
2013-04-15 18:35:00,58.2,53.9,29.88,North,-999,-999.0,-999.0,85,0.00,,,0.10,tws,2013-04-15 22:35:00,
2013-04-15 18:40:00,58.2,54.0,29.89,North,-999,-999.0,-999.0,85,0.00,,,0.10,tws,2013-04-15 22:40:00,
2013-04-15 18:45:00,58.0,53.9,29.89,North,-999,-999.0,-999.0,86,0.00,,,0.10,tws,2013-04-15 22:45:00,
2013-04-15 18:50:00,57.8,53.8,29.89,North,-999,-999.0,-999.0,86,0.00,,,0.10,tws,2013-04-15 22:50:00,
2013-04-15 18:55:00,57.7,53.8,29.89,North,-999,-999.0,-999.0,86,0.00,,,0.10,tws,2013-04-15 22:55:00,
2013-04-15 19:00:00,57.5,53.7,29.89,North,-999,-999.0,-999.0,87,0.00,,,0.10,tws,2013-04-15 23:00:00,
2013-04-15 19:05:00,57.3,53.5,29.89,North,-999,-999.0,-999.0,86,0.00,,,0.10,tws,2013-04-15 23:05:00,
2013-04-15 19:10:00,57.2,53.6,29.89,North,-999,-999.0,-999.0,87,0.00,,,0.10,tws,2013-04-15 23:10:00,
2013-04-15 19:15:00,57.2,53.6,29.89,North,-999,-999.0,-999.0,87,0.00,,,0.10,tws,2013-04-15 23:15:00,
2013-04-15 19:20:00,57.1,53.6,29.89,North,-999,-999.0,-999.0,87,0.00,,,0.10,tws,2013-04-15 23:20:00,
2013-04-15 19:25:00,57.0,53.6,29.89,North,-999,-999.0,-999.0,88,0.00,,,0.10,tws,2013-04-15 23:25:00,
2013-04-15 19:30:00,56.9,53.5,29.89,North,-999,-999.0,-999.0,88,0.00,,,0.10,tws,2013-04-15 23:30:00,
2013-04-15 19:35:00,56.9,53.6,29.89,North,-999,-999.0,-999.0,88,0.00,,,0.10,tws,2013-04-15 23:35:00,
2013-04-15 19:40:00,56.9,53.6,29.89,North,-999,-999.0,-999.0,88,0.00,,,0.10,tws,2013-04-15 23:40:00,
2013-04-15 19:45:00,56.9,53.6,29.89,North,-999,-999.0,-999.0,88,0.00,,,0.10,tws,2013-04-15 23:45:00,
2013-04-15 19:50:00,56.8,53.7,29.90,North,-999,-999.0,-999.0,89,0.00,,,0.10,tws,2013-04-15 23:50:00,
2013-04-15 19:55:00,56.7,53.6,29.90,North,-999,-999.0,-999.0,89,0.00,,,0.10,tws,2013-04-15 23:55:00,
2013-04-15 20:00:00,56.7,53.6,29.90,North,-999,-999.0,-999.0,89,0.00,,,0.10,tws,2013-04-16 00:00:00,
2013-04-15 20:05:00,56.7,53.6,29.90,North,-999,-999.0,-999.0,89,0.00,,,0.10,tws,2013-04-16 00:05:00,
2013-04-15 20:10:00,56.7,53.6,29.90,North,-999,-999.0,-999.0,89,0.00,,,0.10,tws,2013-04-16 00:10:00,
2013-04-15 20:15:00,56.6,53.6,29.90,North,-999,-999.0,-999.0,89,0.00,,,0.10,tws,2013-04-16 00:15:00,
2013-04-15 20:20:00,56.6,53.6,29.91,North,-999,-999.0,-999.0,89,0.00,,,0.10,tws,2013-04-16 00:20:00,
2013-04-15 20:25:00,56.5,53.6,29.91,North,-999,-999.0,-999.0,89,0.00,,,0.10,tws,2013-04-16 00:25:00,
2013-04-15 20:30:00,56.5,53.6,29.91,North,-999,-999.0,-999.0,89,0.00,,,0.10,tws,2013-04-16 00:30:00,
2013-04-15 20:35:00,56.5,53.7,29.92,North,-999,-999.0,-999.0,90,0.00,,,0.10,tws,2013-04-16 00:35:00,
2013-04-15 20:40:00,56.4,53.7,29.92,North,-999,-999.0,-999.0,90,0.00,,,0.10,tws,2013-04-16 00:40:00,
2013-04-15 20:45:00,56.4,53.8,29.92,North,-999,-999.0,-999.0,90,0.00,,,0.10,tws,2013-04-16 00:45:00,
2013-04-15 20:50:00,56.3,53.8,29.92,North,-999,-999.0,-999.0,91,0.00,,,0.10,tws,2013-04-16 00:50:00,
2013-04-15 20:55:00,56.2,53.8,29.92,North,-999,-999.0,-999.0,91,0.00,,,0.10,tws,2013-04-16 00:55:00,
2013-04-15 21:00:00,56.1,53.7,29.93,North,-999,-999.0,-999.0,91,0.00,,,0.10,tws,2013-04-16 01:00:00,
2013-04-15 21:05:00,56.0,53.7,29.93,North,-999,-999.0,-999.0,91,0.00,,,0.10,tws,2013-04-16 01:05:00,
2013-04-15 21:10:00,55.9,53.7,29.93,North,-999,-999.0,-999.0,92,0.00,,,0.10,tws,2013-04-16 01:10:00,
2013-04-15 21:15:00,55.8,53.7,29.93,North,-999,-999.0,-999.0,92,0.00,,,0.10,tws,2013-04-16 01:15:00,
2013-04-15 21:20:00,55.7,53.7,29.94,North,-999,-999.0,-999.0,92,0.00,,,0.10,tws,2013-04-16 01:20:00,
2013-04-15 21:25:00,55.6,53.7,29.94,North,-999,-999.0,-999.0,93,0.00,,,0.10,tws,2013-04-16 01:25:00,
2013-04-15 21:30:00,55.6,53.7,29.94,North,-999,-999.0,-999.0,93,0.00,,,0.10,tws,2013-04-16 01:30:00,
2013-04-15 21:35:00,55.5,53.7,29.95,North,-999,-999.0,-999.0,93,0.00,,,0.10,tws,2013-04-16 01:35:00,
2013-04-15 21:40:00,55.4,53.7,29.95,North,-999,-999.0,-999.0,93,0.00,,,0.10,tws,2013-04-16 01:40:00,
2013-04-15 21:45:00,55.3,53.7,29.95,North,-999,-999.0,-999.0,94,0.00,,,0.10,tws,2013-04-16 01:45:00,
2013-04-15 21:50:00,55.3,53.7,29.95,North,-999,-999.0,-999.0,94,0.00,,,0.10,tws,2013-04-16 01:50:00,
2013-04-15 21:55:00,55.2,53.6,29.95,North,-999,-999.0,-999.0,94,0.00,,,0.10,tws,2013-04-16 01:55:00,
2013-04-15 22:00:00,55.2,53.7,29.95,North,-999,-999.0,-999.0,94,0.00,,,0.10,tws,2013-04-16 02:00:00,
2013-04-15 22:05:00,55.2,53.7,29.95,North,-999,-999.0,-999.0,94,0.00,,,0.10,tws,2013-04-16 02:05:00,
2013-04-15 22:10:00,55.2,53.6,29.95,North,-999,-999.0,-999.0,94,0.00,,,0.10,tws,2013-04-16 02:10:00,
2013-04-15 22:15:00,55.2,53.7,29.95,North,-999,-999.0,-999.0,94,0.00,,,0.10,tws,2013-04-16 02:15:00,
2013-04-15 22:20:00,55.2,53.6,29.96,North,-999,-999.0,-999.0,94,0.00,,,0.10,tws,2013-04-16 02:20:00,
2013-04-15 22:25:00,55.2,53.6,29.96,North,-999,-999.0,-999.0,94,0.00,,,0.10,tws,2013-04-16 02:25:00,
2013-04-15 22:30:00,55.1,53.4,29.96,North,-999,-999.0,-999.0,94,0.00,,,0.10,tws,2013-04-16 02:30:00,
2013-04-15 22:35:00,55.1,53.4,29.96,North,-999,-999.0,-999.0,94,0.00,,,0.10,tws,2013-04-16 02:35:00,
2013-04-15 22:40:00,55.1,53.4,29.96,North,-999,-999.0,-999.0,93,0.00,,,0.10,tws,2013-04-16 02:40:00,
2013-04-15 22:45:00,55.1,53.4,29.96,North,-999,-999.0,-999.0,93,0.00,,,0.10,tws,2013-04-16 02:45:00,
2013-04-15 22:50:00,55.1,53.3,29.96,North,-999,-999.0,-999.0,93,0.00,,,0.10,tws,2013-04-16 02:50:00,
2013-04-15 22:55:00,55.0,53.3,29.96,North,-999,-999.0,-999.0,93,0.00,,,0.10,tws,2013-04-16 02:55:00,
2013-04-15 23:00:00,55.0,53.2,29.96,North,-999,-999.0,-999.0,93,0.00,,,0.10,tws,2013-04-16 03:00:00,
2013-04-15 23:05:00,55.0,53.2,29.96,North,-999,-999.0,-999.0,93,0.00,,,0.10,tws,2013-04-16 03:05:00,
2013-04-15 23:10:00,55.0,53.2,29.96,North,-999,-999.0,-999.0,93,0.00,,,0.10,tws,2013-04-16 03:10:00,
2013-04-15 23:15:00,55.0,53.2,29.96,North,-999,-999.0,-999.0,93,0.00,,,0.10,tws,2013-04-16 03:15:00,
2013-04-15 23:20:00,55.0,53.3,29.96,North,-999,-999.0,-999.0,94,0.00,,,0.10,tws,2013-04-16 03:20:00,
2013-04-15 23:25:00,55.0,53.3,29.96,North,-999,-999.0,-999.0,94,0.00,,,0.10,tws,2013-04-16 03:25:00,
2013-04-15 23:30:00,54.9,53.2,29.96,North,-999,-999.0,-999.0,94,0.00,,,0.10,tws,2013-04-16 03:30:00,
2013-04-15 23:35:00,54.9,53.2,29.96,North,-999,-999.0,-999.0,94,0.00,,,0.10,tws,2013-04-16 03:35:00,
2013-04-15 23:40:00,54.9,53.2,29.96,North,-999,-999.0,-999.0,94,0.00,,,0.10,tws,2013-04-16 03:40:00,
2013-04-15 23:45:00,54.8,53.3,29.96,North,-999,-999.0,-999.0,94,0.00,,,0.10,tws,2013-04-16 03:45:00,
2013-04-15 23:50:00,54.8,53.3,29.96,North,-999,-999.0,-999.0,94,0.00,,,0.10,tws,2013-04-16 03:50:00,
2013-04-15 23:55:00,54.8,53.3,29.96,North,-999,-999.0,-999.0,94,0.00,,,0.10,tws,2013-04-16 03:55:00,